Back to catalog

WESTAR 4

AliveCommunicationsGEO
NORAD 13069·PAYLOAD·🇺🇸 United States

Launched Feb 26, 1982 from Cape Canaveral Space Force Station

Loading…

TLE

FreshSource: Space-Track

Epoch: Sep 14, 2026, 00:02 UTC

1 13069U 82014A   26257.00164309 -.00000222  00000-0  00000-0 0  9996
2 13069  12.5483 334.3482 0004401 277.7995  85.0590  0.99778223 47337

Track WESTAR 4 in real time with AllMySat

Download on the App Store